Location: *
(49.7115°N, 15.0136°E)
Time: 15:36:52
(UTC+00:00)

STARLINK-1041 - Pass Details

Date: 27 February 2020
Orbit: 549 x 550 km, 53.0° (Epoch: 08 April)

Event Time Altitude Azimuth Distance (km) Brightness Sun altitude
Rises 18:15:27 0° 237° (WSW) 2,711 8.0 -16.5°
Reaches altitude 10° 18:17:41 10° 236° (SW) 1,820 7.0 -16.8°
Maximum altitude 18:21:48 70° 152° (SSE) 586 3.5 -17.5°
Enters shadow 18:23:13 39° 80° (E) 835 4.0 -17.7°
